This is the latest recevied weather packets stored in our database for station/object N8AMF. If no packets are shown the sender has not sent any weather packets the latest 10 day(s).
| Time | Temp. | Humidity | Pressure | Rain* | Wind** | Luminosity | Snow |
|---|---|---|---|---|---|---|---|
| 1777307280 | 18.89° C | 51% | 1017.4 hPa | 0 mm | - | 729 W/m² | - |
| 1777306977 | 20° C | 52% | 1017.6 hPa | 0 mm | - | 687 W/m² | - |
| 1777306674 | 20° C | 50% | 1017.8 hPa | 0 mm | - | 730 W/m² | - |
| 1777306371 | 19.44° C | 50% | 1017.7 hPa | 0 mm | - | 741 W/m² | - |
| 1777306066 | 18.89° C | 53% | 1017.7 hPa | 0 mm | - | 750 W/m² | - |
| 1777305763 | 18.89° C | 55% | 1017.7 hPa | 0 mm | - | 763 W/m² | - |
| 1777305459 | 19.44° C | 56% | 1017.8 hPa | 0 mm | - | 708 W/m² | - |
| 1777305158 | 18.89° C | 54% | 1017.8 hPa | 0 mm | - | 736 W/m² | - |
| 1777304853 | 18.33° C | 55% | 1017.9 hPa | 0 mm | - | 746 W/m² | - |
| 1777304551 | 18.33° C | 55% | 1017.9 hPa | 0 mm | - | 717 W/m² | - |
| 1777304248 | 18.89° C | 56% | 1017.9 hPa | 0 mm | - | 701 W/m² | - |
| 1777303945 | 18.33° C | 59% | 1018 hPa | 0 mm | - | 708 W/m² | - |
| 1777303641 | 17.78° C | 60% | 1018.3 hPa | 0 mm | - | 736 W/m² | - |
| 1777303340 | 18.33° C | 60% | 1018.4 hPa | 0 mm | - | 719 W/m² | - |
| 1777303036 | 17.78° C | 63% | 1018.1 hPa | 0 mm | - | 700 W/m² | - |
| 1777302734 | 18.33° C | 60% | 1018.1 hPa | 0 mm | - | 709 W/m² | - |
| 1777302432 | 17.78° C | 59% | 1018.3 hPa | 0 mm | - | 643 W/m² | - |
| 1777302130 | 17.78° C | 61% | 1018.6 hPa | 0 mm | - | 674 W/m² | - |
| 1777301827 | 16.67° C | 61% | 1018.9 hPa | 0 mm | - | 652 W/m² | - |
| 1777301524 | 17.78° C | 59% | 1019.1 hPa | 0 mm | - | 657 W/m² | - |
| 1777301221 | 16.67° C | 64% | 1018.9 hPa | 0 mm | - | 631 W/m² | - |
| 1777300917 | 16.67° C | 61% | 1019 hPa | 0 mm | - | 643 W/m² | - |
| 1777300616 | 17.22° C | 63% | 1018.8 hPa | 0 mm | - | 609 W/m² | - |
| 1777300313 | 16.67° C | 66% | 1019 hPa | 0 mm | - | 585 W/m² | - |
| 1777300010 | 15.56° C | 68% | 1018.7 hPa | 0 mm | - | 573 W/m² | - |
* Rain latest hour (hover to see other rain measurements)
** Current wind speed in m/s (hover to see current wind gust speed)